Regional Weather Roundup
Issued by NWS Newport/Morehead, NC

Home | Current Version | Previous Version | Text Only | Print | Product List | Glossary On
Versions: 1 2 3 4 5 6 7 8 9 10 11 12 13 14 15 16 17 18 19 20 21 22 23 24 25 26 27 28 29 30 31 32 33 34 35 36 37 38 39 40 41 42 43 44 45 46 47 48 49 50
000
ASUS42 KMHX 301110
RWRMHX
WEATHER ROUNDUP FOR EASTERN NORTH CAROLINA
NATIONAL WEATHER SERVICE NEWPORT/MOREHEAD CITY NC
700 AM EDT WED JUL 30 2014

NOTE: "FAIR" INDICATES FEW OR NO CLOUDS BELOW 12,000 FEET
WITH NO SIGNIFICANT WEATHER AND/OR OBSTRUCTIONS TO VISIBILITY

NCZ015>017-031-032-045>047-102-103-301200-
NORTH COAST

CITY           SKY/WX    TMP DP  RH WIND       PRES   REMARKS
EDENTON        CLEAR     62  60  94 NE3       30.04R
ELIZABETH CITY CLEAR     65  61  87 NW6       30.04R
KITTY HAWK     SUNNY     72  59  64 N3        30.01S
MANTEO         NOT AVBL

$$

NCZ045>047-081-094-103-104-301200-
CENTRAL COAST

CITY           SKY/WX    TMP DP  RH WIND       PRES   REMARKS
FRISCO         PTCLDY    73  61  65 NE5       30.01R
SWANQUARTER      N/A     68 N/A N/A NE3       29.97S

$$

NCZ095-097-098-100-101-301200-
SOUTHERN COAST

CITY           SKY/WX    TMP DP  RH WIND       PRES   REMARKS
BEAUFORT       CLEAR     71  66  84 NE3       30.01R
CEDAR ISLAND     N/A     77 N/A N/A NE14      30.03S
JACKSONVILLE   CLEAR     68  66  93 N5        30.01R
NEWPORT        NOT AVBL
PINEY ISLAND   SUNNY     78  64  61 NE8       30.00R
WILMINGTON     CLEAR     69  67  93 NE3       30.00R


$$

NCZ011>013-027>030-043-044-078>080-089-090>093-098-301200-
COASTAL PLAIN

CITY           SKY/WX    TMP DP  RH WIND       PRES   REMARKS
AHOSKIE        CLOUDY    61  58  90 CALM      30.06R
CLINTON        CLEAR     64  63  99 CALM      30.03R
ELIZABETHTOWN  CLEAR     64  64  99 CALM      30.01R
GOLDSBORO      CLEAR     65  65  98 N5        30.02R
GREENVILLE     CLEAR     63  63 100 CALM      30.06R FOG
HAVELOCK       CLEAR     69  66  90 CALM      30.02R
KENANSVILLE    CLEAR     62  60  95 CALM      30.03R
KINSTON        CLEAR     64  64 100 CALM      30.04R FOG
NEW BERN       CLEAR     70  64  81 CALM      30.03R
RICHLANDS      CLEAR     64  61  88 CALM      30.02R
ROANOKE RAPIDS NOT AVBL
ROCKY MOUNT    PTCLDY    65  62  90 N6        30.05R
WASHINGTON     CLEAR     62  61  96 N6        30.03R
WHITEVILLE     CLEAR     67  65  96 NE3       30.00S FOG

$$

AMZ130-135-150-152-154-156-158-170-250-252-270-ANZ085-086-088-633-658-670-301200-
MARINE OBSERVATIONS

STATION/POSITION TIME  TEMP    WIND        PRES    WAVE   SWELL
                       AIR SEA DIR/SP/G            HT/PER HT/PER
                 (UTC) (F)     (DEG/KT/KT) (MB)    (FT/S) (FT/S)
CHESAPEAKE LIGHT NOT AVBL
BUOY 44014       1100   74 78  350/ 10/ 14 1016.1    2/ 7   2/ 7
DUCK             1100   74 75   10/  9/ 10 1015.8
2E DUCK          1000                        N/A     2/15
OREGON INLET     1100   74 78   10/  7/  9 1016.2
BUOY 44095       1100      78                N/A     3/ 8
20E OREGON INLET NOT AVBL
HATTERAS CG      1100   76 79   40/  8/ 11 1016.3
DIAMOND BUOY     1100          VRB 12/ 14  1015.5    3/ 8   3/ 8
CAPE LOOKOUT     1000   77      40/ 12/ 14 1015.2
BEAUFORT LAB     1100   73 82   40/  2/  3 1015.5
30 SE NEW RIVER  1100   78 81   50/ 12/ 16 1015.8    3/ 8   2/ 8
5 SE WRIGHTSVILL 1000   76 81   70/ 10/ 12   N/A
BUOY 41002       0956   79 80  260/  8/ 10 1014.0    5/ 7   5/ 7
BUOY 41004       1000   81 84   70/  8/ 10 1013.8    2/ 8   2/ 8

$$


USA.gov is the U.S. government's official web portal to all federal, state and local government web resources and services.